LVMSA SADF-XMGI

Flight info

Callsign LVMSA
Flight time N/A
Altitude 2000
Route DCT EZE19 DCT
Aircraft BE36/L-S/C

Departure

Time 2026-04-25 00:45
Airport San Fernando Airport (SADF)

Arrival

Time N/A
Airport XMGI
Time Latitude Longitude Altitude Speed Heading
2026-04-25 00:32 -34.45935 -58.59265 9 ft 0 kts 62°
2026-04-25 00:37 -34.45920 -58.59265 9 ft 6 kts 331°
2026-04-25 00:37 -34.45905 -58.59314 9 ft 9 kts 244°
2026-04-25 00:38 -34.45944 -58.59404 9 ft 14 kts 242°
2026-04-25 00:38 -34.45992 -58.59515 9 ft 14 kts 242°
2026-04-25 00:38 -34.46027 -58.59602 9 ft 0 kts 253°
2026-04-25 00:42 -34.46030 -58.59625 9 ft 6 kts 276°
2026-04-25 00:42 -34.45995 -58.59676 9 ft 9 kts 338°
2026-04-25 00:43 -34.45939 -58.59651 9 ft 10 kts 46°
2026-04-25 00:43 -34.45929 -58.59638 9 ft 0 kts 49°
2026-04-25 00:44 -34.45918 -58.59625 9 ft 14 kts 42°
2026-04-25 00:44 -34.45685 -58.59356 9 ft 72 kts 43°
2026-04-25 00:44 -34.45284 -58.58881 97 ft 83 kts 43°
2026-04-25 00:44 -34.44838 -58.58380 255 ft 92 kts 40°
2026-04-25 00:45 -34.44345 -58.57801 426 ft 99 kts 43°
2026-04-25 00:45 -34.43842 -58.57243 642 ft 98 kts 37°
2026-04-25 00:45 -34.43216 -58.56897 766 ft 103 kts 13°
2026-04-25 00:45 -34.42469 -58.56753 871 ft 109 kts
2026-04-25 00:46 -34.41735 -58.56750 1052 ft 106 kts
2026-04-25 00:46 -34.40998 -58.56652 1156 ft 110 kts 13°
2026-04-25 00:46 -34.39505 -58.56263 1445 ft 110 kts 11°
2026-04-25 00:47 -34.38770 -58.55996 1605 ft 108 kts 19°
2026-04-25 00:47 -34.38071 -58.55659 1736 ft 110 kts 21°
2026-04-25 00:47 -34.37420 -58.55135 1839 ft 113 kts 35°
2026-04-25 00:47 -34.36782 -58.54535 1909 ft 118 kts 38°
2026-04-25 00:48 -34.36137 -58.53876 1944 ft 125 kts 40°
2026-04-25 00:48 -34.35468 -58.53146 1963 ft 132 kts 43°
2026-04-25 00:48 -34.34808 -58.52356 2019 ft 133 kts 43°
2026-04-25 00:48 -34.34111 -58.51582 2006 ft 139 kts 39°
2026-04-25 00:49 -34.33380 -58.50809 2033 ft 141 kts 42°
2026-04-25 00:49 -34.32656 -58.49971 2035 ft 144 kts 42°
2026-04-25 00:49 -34.31958 -58.49079 2013 ft 148 kts 46°
2026-04-25 00:49 -34.31269 -58.48129 2012 ft 150 kts 47°
2026-04-25 00:50 -34.30596 -58.47185 2056 ft 148 kts 45°
2026-04-25 00:50 -34.29871 -58.46296 2051 ft 150 kts 44°
2026-04-25 00:50 -34.29130 -58.45394 2051 ft 151 kts 44°
2026-04-25 00:50 -34.28378 -58.44481 1988 ft 156 kts 44°
2026-04-25 00:51 -34.27603 -58.43542 1973 ft 156 kts 44°
2026-04-25 00:51 -34.26986 -58.42468 1975 ft 156 kts 58°
2026-04-25 00:51 -34.26452 -58.41338 1974 ft 156 kts 58°
2026-04-25 00:51 -34.25915 -58.40196 1970 ft 156 kts 58°
2026-04-25 00:52 -34.25381 -58.39060 1966 ft 155 kts 58°
2026-04-25 00:52 -34.24846 -58.37925 1966 ft 152 kts 58°
2026-04-25 00:52 -34.24328 -58.36823 1966 ft 151 kts 58°
2026-04-25 00:52 -34.23815 -58.35730 1966 ft 149 kts 58°
2026-04-25 00:53 -34.23308 -58.34644 1964 ft 148 kts 58°
2026-04-25 00:53 -34.22802 -58.33565 1967 ft 147 kts 58°
2026-04-25 00:53 -34.22302 -58.32486 1959 ft 144 kts 59°
2026-04-25 00:53 -34.21815 -58.31427 1857 ft 145 kts 57°
2026-04-25 00:54 -34.21243 -58.30450 1756 ft 139 kts 51°
2026-04-25 00:54 -34.20570 -58.29641 1568 ft 139 kts 35°
2026-04-25 00:54 -34.19781 -58.28978 1374 ft 136 kts 34°
2026-04-25 00:54 -34.19067 -58.28249 1191 ft 134 kts 43°
2026-04-25 00:55 -34.18438 -58.27425 1005 ft 132 kts 47°
2026-04-25 00:55 -34.17838 -58.26605 925 ft 123 kts 46°
2026-04-25 00:55 -34.17261 -58.25880 806 ft 119 kts 37°
2026-04-25 00:55 -34.16514 -58.25592 779 ft 108 kts 355°
2026-04-25 00:56 -34.15829 -58.25837 750 ft 99 kts 341°
2026-04-25 00:56 -34.15182 -58.26026 748 ft 90 kts
2026-04-25 00:56 -34.14613 -58.25835 675 ft 85 kts 28°
2026-04-25 00:56 -34.14223 -58.25325 647 ft 81 kts 62°
2026-04-25 00:57 -34.14103 -58.24664 609 ft 82 kts 85°
2026-04-25 00:57 -34.14234 -58.23995 552 ft 83 kts 117°
2026-04-25 00:57 -34.14697 -58.23624 515 ft 81 kts 168°
2026-04-25 00:57 -34.15268 -58.23770 474 ft 86 kts 206°
2026-04-25 00:58 -34.15783 -58.24152 457 ft 89 kts 214°
2026-04-25 00:58 -34.16288 -58.24587 484 ft 86 kts 207°
2026-04-25 00:58 -34.16833 -58.24888 349 ft 84 kts 196°
2026-04-25 00:58 -34.17394 -58.24958 156 ft 79 kts 172°
2026-04-25 00:59 -34.17905 -58.24805 23 ft 65 kts 159°
2026-04-25 00:59 -34.18273 -58.24664 26 ft 46 kts 168°
2026-04-25 00:59 -34.18542 -58.24577 26 ft 34 kts 158°
2026-04-25 00:59 -34.18663 -58.24521 26 ft 13 kts
2026-04-25 01:00 -34.18571 -58.24564 26 ft 16 kts 333°
2026-04-25 01:00 -34.18510 -58.24617 28 ft 5 kts 269°
2026-04-25 01:00 -34.18518 -58.24636 28 ft 3 kts 176°
2026-04-25 01:00 -34.18554 -58.24656 29 ft 9 kts 255°
2026-04-25 01:01 -34.18547 -58.24751 31 ft 13 kts 297°
2026-04-25 01:01 -34.18489 -58.24820 32 ft 2 kts 334°
2026-04-25 01:01 -34.18488 -58.24820 32 ft 0 kts 334°